Flag for U.S.A. Weather past 2 weeks in San Jose, California, U.S.A.

Now
53 °F

Light rain. Mostly cloudy.


Feels Like: 51 °F
Forecast: 49 / 58 °F
Wind: 7 mph from East

Location: San Jose International Airport

Current Time: Dec 17, 2014 at 6:42:49 PM

Latest Report: Dec 17, 2014 at 5:53 PM


Visibility: 9 mi

Pressure: 30.06 "Hg

Humidity: 100%

Dew point: 53 °F

Location of San JoseLocation

Historic Weather in San Jose — Graph

°F

San Jose temperature yesterday

Maximum temperature yesterday: 61 °F (at 1:53 PM)
Minimum temperature yesterday: 48 °F (at 2:53 AM)
Average temperature yesterday: 53 °F

Past Weeks' High & Low Weather Summary

 TemperatureHumidityPressure
High71 °F (Dec 8, 2:53 PM)100% (Dec 3, 12:53 AM)30.22 "Hg (Dec 3, 12:53 AM)
Low43 °F (Dec 13, 3:53 AM)51% (Dec 8, 1:53 PM)29.55 "Hg (Dec 11, 6:53 AM)
Average56 °F86%29.99 "Hg
* Reported Dec 2 4:53 PM — Dec 17 4:53 PM, San Jose, Weather by CustomWeather, © 2014

Note: Actual official high and low records may vary slightly from our data, if they occured in-between our weather recording intervals... More about our weather records

Advertising

San Jose weather history for previous 24 hours

 ConditionsComfort  
Time TempWeatherWind HumidityBarometerVisibility
4:53 PM
Dec 17
54 °FLight rain. Mostly cloudy.7 mph83%30.05 "Hg9 mi
3:53 PM56 °FMostly cloudy.8 mph70%30.03 "Hg10 mi
2:53 PM57 °FBroken clouds.6 mph67%30.03 "Hg10 mi
1:53 PM57 °FBroken clouds.7 mph69%30.03 "Hg10 mi
12:53 PM56 °FBroken clouds.6 mph75%30.06 "Hg10 mi
11:53 AM54 °FMostly cloudy.8 mph80%30.07 "Hg10 mi
10:53 AM53 °FMostly cloudy.6 mph86%30.10 "Hg10 mi
9:53 AM51 °FLight rain. Mostly cloudy.7 mph92%30.09 "Hg10 mi
8:53 AM49 °FBroken clouds.7 mph93%30.06 "Hg10 mi
7:53 AM47 °FScattered clouds.7 mph97%30.03 "Hg10 mi
6:53 AM47 °FPartly cloudy.6 mph97%30.02 "Hg10 mi
5:53 AM45 °FPassing clouds.6 mph100%30.00 "Hg10 mi
4:53 AM47 °FPassing clouds.6 mph100%29.98 "Hg10 mi
3:53 AM46 °FFog.5 mph100%29.98 "Hg6 mi
2:53 AM48 °FPassing clouds.5 mph100%29.98 "Hg10 mi
1:53 AM48 °FOvercast.5 mph100%29.96 "Hg7 mi
12:53 AM48 °FPassing clouds.3 mph100%29.95 "Hg8 mi
11:53 PM
Dec 16
50 °FLight rain. Partly cloudy.5 mph100%29.95 "Hg10 mi
10:53 PM50 °FPartly cloudy.No wind100%29.95 "Hg10 mi
9:53 PM51 °FMostly cloudy.3 mph100%29.93 "Hg10 mi
8:53 PM51 °FLight rain. Mostly cloudy.5 mph100%29.90 "Hg7 mi
7:53 PM52 °FLight rain. Fog.7 mph100%29.87 "Hg6 mi
7:03 PM52 °FHeavy rain. Fog.5 mph100%29.87 "Hg3 mi
6:53 PM53 °FHeavy rain. Fog.No wind100%29.87 "Hg2 mi
Weather by CustomWeather, © 2014

See weather overviewHow to use our weather pages